Flag for Germany Weather past 2 weeks in Leverkusen, North Rhine-Westphalia, Germany

41 °F

Partly cloudy.

Feels Like: 36 °F
Forecast: 35 / 42 °F
Wind: 7 mph from West

Location: Koeln / Bonn

Current Time: Nov 26, 2015 at 1:25:32 AM

Latest Report: Nov 26, 2015 at 12:20 AM

Visibility: N/A

Pressure: 29.80 "Hg

Humidity: 100%

Dew point: 41 °F

Location of LeverkusenLocation

Historic Weather in Leverkusen — Graph


Leverkusen temperature yesterday

Maximum temperature yesterday: 45 °F (at 1:20 PM)
Minimum temperature yesterday: 34 °F (at 12:20 AM)
Average temperature yesterday: 40 °F

Past Weeks' High & Low Weather Summary

High61 °F (Nov 12, 11:20 AM)100% (Nov 14, 11:20 PM)30.33 "Hg (Nov 14, 11:20 PM)
Low32 °F (Nov 24, 5:20 AM)59% (Nov 18, 9:50 AM)29.39 "Hg (Nov 21, 1:50 PM)
Average48 °F83%29.96 "Hg
* Reported Nov 11 12:20 AM — Nov 26 12:20 AM, Leverkusen, Weather by CustomWeather, © 2015

Note: Actual official high and low records may vary slightly from our data, if they occured in-between our weather recording intervals... More about our weather records


Leverkusen weather history for previous 24 hours

Time TempWeatherWind HumidityBarometerVisibility
12:20 AM
Thu, Nov 26
41 °FPartly cloudy.7 mph100%29.80 "HgN/A
11:50 PM
Wed, Nov 25
41 °FSprinkles. Partly cloudy.6 mph100%29.80 "HgN/A
11:20 PM41 °FPassing clouds.5 mph100%29.80 "HgN/A
10:50 PM39 °FSprinkles. Passing clouds.3 mph100%29.80 "HgN/A
10:20 PM41 °FSprinkles. Partly cloudy.6 mph93%29.80 "HgN/A
9:50 PM41 °FPartly cloudy.3 mph93%29.77 "HgN/A
9:20 PM41 °FPassing clouds.7 mph93%29.77 "HgN/A
8:50 PM41 °FPartly cloudy.7 mph93%29.77 "HgN/A
8:20 PM41 °FPartly cloudy.7 mph93%29.77 "HgN/A
7:50 PM41 °FPartly cloudy.7 mph93%29.74 "HgN/A
7:20 PM43 °FPartly cloudy.8 mph87%29.74 "HgN/A
6:50 PM43 °FPassing clouds.7 mph93%29.74 "HgN/A
6:20 PM43 °FPassing clouds.7 mph87%29.71 "HgN/A
5:50 PM43 °FPassing clouds.7 mph87%29.71 "HgN/A
5:20 PM43 °FPartly cloudy.7 mph87%29.71 "HgN/A
4:50 PM43 °FSprinkles. Partly cloudy.9 mph87%29.68 "HgN/A
4:20 PM43 °FBroken clouds.3 mph93%29.68 "HgN/A
3:50 PM43 °FBroken clouds.3 mph93%29.68 "HgN/A
3:20 PM43 °FBroken clouds.5 mph93%29.68 "HgN/A
2:50 PM43 °FSprinkles. Broken clouds.8 mph93%29.68 "HgN/A
2:20 PM43 °FSprinkles. Broken clouds.13 mph93%29.68 "HgN/A
1:50 PM45 °FSprinkles. Broken clouds.13 mph87%29.68 "HgN/A
1:20 PM45 °FScattered showers. Broken clouds.6 mph93%29.68 "HgN/A
12:50 PM43 °FBroken clouds.5 mph93%29.68 "HgN/A
12:20 PM43 °FSprinkles. Partly sunny.9 mph93%29.68 "HgN/A
11:50 AM41 °FSprinkles. Broken clouds.2 mph100%29.71 "HgN/A
11:20 AM41 °FPartly sunny.5 mph93%29.71 "HgN/A
10:50 AM41 °FRain showers. Broken clouds.15 mph93%29.71 "HgN/A
10:20 AM43 °FPartly sunny.7 mph93%29.71 "HgN/A
9:50 AM41 °FPartly sunny.7 mph100%29.71 "HgN/A
9:20 AM41 °FPartly sunny.6 mph100%29.71 "HgN/A
8:50 AM39 °FPartly sunny.6 mph100%29.71 "HgN/A
7:50 AM37 °FPassing clouds.7 mph100%29.71 "HgN/A
7:20 AM37 °FLight rain. Passing clouds.8 mph100%29.71 "HgN/A
6:50 AM37 °FLight rain. Passing clouds.7 mph100%29.71 "HgN/A
5:50 AM36 °FLight rain. Passing clouds.8 mph100%29.71 "HgN/A
4:50 AM36 °FLight rain. Passing clouds.8 mph100%29.71 "HgN/A
4:20 AM36 °FLight rain. Passing clouds.8 mph100%29.71 "HgN/A
3:50 AM36 °FPassing clouds.7 mph100%29.71 "HgN/A
3:20 AM36 °FPassing clouds.9 mph100%29.74 "HgN/A
2:50 AM36 °FLight rain. Passing clouds.8 mph100%29.74 "HgN/A
2:20 AM36 °FLight rain. Passing clouds.8 mph100%29.74 "HgN/A
1:50 AM36 °FLight rain. Passing clouds.8 mph100%29.74 "HgN/A
1:20 AM34 °FLight rain. Passing clouds.8 mph100%29.77 "HgN/A
Weather by CustomWeather, © 2015

See weather overviewHow to use our weather pages